Weather History for Ft Lauderdale, FL

Change the Weather History Date:

Thursday, February 21, 2013

  Actual Average Record
Temperature  
Mean Temperature 75 °F 71 °F  
Max Temperature 80 °F 78 °F 85 °F (1975)
Min Temperature 69 °F 65 °F 39 °F (1958)
Degree Days  
Heating Degree Days 0 1  
Month to date heating degree days 19 21  
Since 1 July heating degree days 43 101  
Cooling Degree Days 10 7  
Month to date cooling degree days 127 138  
Year to date cooling degree days 382 308  
Growing Degree Days 24 (Base 50)    
Moisture  
Dew Point 65 °F    
Average Humidity 72    
Maximum Humidity 84    
Minimum Humidity 60    
Precipitation  
Precipitation 0.00 in 0.09 in 0.90 in (1954)
Month to date precipitation 1.91 2.30  
Year to date precipitation 2.89 5.93  
Snow  
Snow 0.00 in - - ()
Month to date snowfall 0.0  
Since 1 July snowfall 0.0  
Snow Depth 0.00 in    
Sea Level Pressure  
Sea Level Pressure 30.05 in    
Wind  
Wind Speed 9 mph (SE)    
Max Wind Speed 14 mph    
Max Gust Speed 18 mph    
Visibility 10 miles    
Events      
T = Trace of Precipitation, MM = Missing Value Source: NWS Daily Summary

Daily Weather History Graph

Daily Weather History Graph

Search for Another Location

Airport:

Trip Planner

Search our weather history database for the weather conditions in past years. The results will help you decide how hot, cold, wet, or windy it might be!

Date:

Astronomy

Feb. 21, 2013 Rise Set
Actual Time 6:51 AM EST 6:17 PM EST
Civil Twilight 6:27 AM EST 6:41 PM EST
Nautical Twilight 6:00 AM EST 7:07 PM EST
Astronomical Twilight 5:33 AM EST 7:34 PM EST
Moon 2:45 PM EST (2/21) 3:39 AM EST (2/21)
Length of Visible Light 12h 13m
Length of Day
11h 26m
Waxing Gibbous, 83% of the Moon is Illuminated
Feb 21
Waxing Gibbous
Feb 25
Full
Mar 4
Last Quarter
Mar 11
New
Mar 19
First Quarter

Hourly Weather History & Observations

Time (EST) Temp. Dew Point Humidity Pressure Visibility Wind Dir Wind Speed Gust Speed Precip Events Conditions
12:53 AM 72.0 °F 66.0 °F 81% 30.06 in 10.0 mi East 6.9 mph - N/A   Scattered Clouds
1:53 AM 71.1 °F 66.0 °F 84% 30.04 in 10.0 mi ESE 5.8 mph - N/A   Scattered Clouds
2:53 AM 72.0 °F 64.9 °F 78% 30.01 in 10.0 mi SE 5.8 mph - N/A   Partly Cloudy
3:53 AM 71.1 °F 64.9 °F 81% 30.00 in 10.0 mi SE 6.9 mph - N/A   Partly Cloudy
4:53 AM 71.1 °F 64.0 °F 78% 30.01 in 10.0 mi SE 6.9 mph - N/A   Partly Cloudy
5:53 AM 70.0 °F 63.0 °F 78% 30.03 in 10.0 mi ESE 3.5 mph - N/A   Partly Cloudy
6:53 AM 70.0 °F 63.0 °F 78% 30.05 in 10.0 mi SE 3.5 mph - N/A   Partly Cloudy
7:53 AM 72.0 °F 64.0 °F 76% 30.07 in 10.0 mi ESE 4.6 mph - N/A   Partly Cloudy
8:53 AM 75.9 °F 64.0 °F 67% 30.09 in 10.0 mi ESE 10.4 mph - N/A   Partly Cloudy
9:53 AM 77.0 °F 63.0 °F 62% 30.09 in 10.0 mi ESE 12.7 mph - N/A   Partly Cloudy
10:53 AM 78.1 °F 64.9 °F 64% 30.09 in 10.0 mi ESE 11.5 mph - N/A   Partly Cloudy
11:53 AM 79.0 °F 64.9 °F 62% 30.09 in 10.0 mi SE 11.5 mph - N/A   Scattered Clouds
1:53 PM 78.1 °F 66.0 °F 66% 30.05 in 10.0 mi SE 11.5 mph - N/A   Scattered Clouds
2:53 PM 79.0 °F 66.0 °F 64% 30.04 in 10.0 mi SSE 12.7 mph - N/A   Partly Cloudy
3:53 PM 78.1 °F 66.9 °F 68% 30.03 in 10.0 mi SE 11.5 mph - N/A   Partly Cloudy
4:53 PM 75.9 °F 66.0 °F 71% 30.04 in 10.0 mi SE 10.4 mph - N/A   Partly Cloudy
5:53 PM 75.0 °F 66.9 °F 76% 30.04 in 10.0 mi ESE 11.5 mph - N/A   Partly Cloudy
6:53 PM 73.9 °F 64.9 °F 73% 30.04 in 10.0 mi SE 9.2 mph - N/A   Partly Cloudy
7:53 PM 73.9 °F 64.9 °F 73% 30.04 in 10.0 mi SE 8.1 mph - N/A   Clear
8:53 PM 73.0 °F 64.0 °F 73% 30.06 in 10.0 mi SE 6.9 mph - N/A   Clear
9:53 PM 73.0 °F 66.0 °F 79% 30.06 in 10.0 mi SE 9.2 mph - N/A   Clear
10:53 PM 73.0 °F 66.0 °F 79% 30.06 in 10.0 mi SE 10.4 mph - N/A   Partly Cloudy
11:53 PM 73.0 °F 66.9 °F 81% 30.06 in 10.0 mi ESE 10.4 mph - N/A   Partly Cloudy